Date String (YYYY-MM-DD hh:mm:ss) UTC,Instrument flags,Ambient pressure (hPa),Sample flow (lpm),Bypass flow (lpm),Sample temperature (°C),Ambient temperature (°C),ASC tube jacket temperature (°C),LED temperature (°C),Box temperature (°C),Sample RH (%),Span deviation,Mass concentration (μg/m³),Mass concentration (μg/m³),Mass concentration (μg/m³)
DateTimeUTC,F1_M11,P_M11,Q1_M11,Q2_M11,T1_M11,T2_M11,T3_M11,T4_M11,T5_M11,U1_M11,ZSPAN_M11,X0_M11,X2_M11,X1_M11
2022-06-01 04:00:00,,0832.8,5.00,0.00,27.7,26.6,00.0,36.7,29.6,21.0,0000.0,0001.93,0001.39,0001.18
2022-06-01 04:01:00,,0832.8,5.00,0.00,27.7,26.6,00.0,36.7,29.6,21.0,0000.0,0001.77,0001.35,0001.18
2022-06-01 04:02:00,,0832.9,5.00,0.00,27.7,26.6,00.0,36.7,29.6,21.0,0000.0,0001.68,0001.32,0001.17
2022-06-01 04:03:00,,0832.8,4.99,0.00,27.7,26.6,00.0,36.7,29.6,20.9,0000.0,0001.63,0001.30,0001.18
2022-06-01 04:04:00,,0832.8,5.01,0.00,27.7,26.6,00.0,36.7,29.6,20.9,0000.0,0001.64,0001.31,0001.17
2022-06-01 04:05:00,,0832.9,5.00,0.00,27.7,26.6,00.0,36.7,29.6,20.9,0000.0,0001.61,0001.29,0001.17
2022-06-01 04:06:00,,0832.9,5.00,0.00,27.7,26.5,00.0,36.7,29.6,21.0,0000.0,0001.63,0001.31,0001.18
2022-06-01 04:07:00,,0832.9,5.00,0.00,27.7,26.5,00.0,36.7,29.5,21.1,0000.0,0001.69,0001.32,0001.18
2022-06-01 04:08:00,,0832.9,5.00,0.00,27.7,26.5,00.0,36.7,29.5,21.1,0000.0,0001.73,0001.35,0001.19
2022-06-01 04:09:00,,0833.0,4.99,0.00,27.7,26.5,00.0,36.6,29.5,21.1,0000.0,0001.89,0001.39,0001.19
2022-06-01 04:10:00,,0833.0,5.00,0.00,27.7,26.5,00.0,36.6,29.5,21.1,0000.0,0001.90,0001.39,0001.19
2022-06-01 04:11:00,,0833.0,5.01,0.00,27.7,26.5,00.0,36.6,29.5,21.1,0000.0,0001.96,0001.41,0001.19
2022-06-01 04:12:00,,0833.1,5.01,0.00,27.7,26.5,00.0,36.6,29.5,20.8,0000.0,0001.92,0001.39,0001.18
2022-06-01 04:13:00,,0833.0,4.99,0.00,27.7,26.5,00.0,36.6,29.5,20.8,0000.0,0001.89,0001.37,0001.18
2022-06-01 04:14:00,,0833.1,5.00,0.00,27.7,26.5,00.0,36.6,29.5,20.5,0000.0,0001.97,0001.38,0001.16
2022-06-01 04:15:00,,0833.1,5.00,0.00,27.7,26.5,00.0,36.6,29.5,20.5,0000.0,0001.97,0001.37,0001.15
2022-06-01 04:16:00,,0833.1,5.01,0.00,27.7,26.5,00.0,36.6,29.5,20.6,0000.0,0002.07,0001.41,0001.14
2022-06-01 04:17:00,,0833.0,5.00,0.00,27.6,26.5,00.0,36.6,29.5,20.6,0000.0,0002.10,0001.40,0001.12
2022-06-01 04:18:00,,0833.0,5.00,0.00,27.6,26.5,00.0,36.6,29.5,20.6,0000.0,0002.08,0001.39,0001.10
2022-06-01 04:19:00,,0833.0,5.00,0.00,27.6,26.5,00.0,36.6,29.5,20.5,0000.0,0002.02,0001.36,0001.09
2022-06-01 04:20:00,,0832.9,5.00,0.00,27.6,26.5,00.0,36.6,29.5,20.3,0000.0,0001.85,0001.29,0001.07
2022-06-01 04:21:00,,0832.9,5.00,0.00,27.6,26.5,00.0,36.6,29.5,20.4,0000.0,0001.86,0001.29,0001.05
2022-06-01 04:22:00,,0832.9,5.00,0.00,27.6,26.4,00.0,36.6,29.5,20.5,0000.0,0001.82,0001.28,0001.04
2022-06-01 04:23:00,,0833.0,5.00,0.00,27.6,26.4,00.0,36.6,29.5,20.6,0000.0,0001.87,0001.30,0001.04
2022-06-01 04:24:00,,0833.0,5.01,0.00,27.6,26.4,00.0,36.6,29.5,20.7,0000.0,0001.93,0001.33,0001.04
2022-06-01 04:25:00,,0833.0,5.00,0.00,27.6,26.4,00.0,36.6,29.5,20.7,0000.0,0001.88,0001.32,0001.05
2022-06-01 04:26:00,,0833.0,5.00,0.00,27.6,26.4,00.0,36.6,29.5,20.6,0000.0,0001.86,0001.33,0001.05
2022-06-01 04:27:00,,0833.0,5.00,0.00,27.6,26.4,00.0,36.6,29.5,20.6,0000.0,0001.80,0001.30,0001.05
2022-06-01 04:28:00,,0833.0,5.00,0.00,27.6,26.4,00.0,36.5,29.4,20.7,0000.0,0001.70,0001.26,0001.04
2022-06-01 04:29:00,,0833.0,5.01,0.00,27.6,26.4,00.0,36.5,29.4,20.6,0000.0,0001.63,0001.23,0001.03
2022-06-01 04:30:00,,0833.1,5.01,0.00,27.6,26.4,00.0,36.5,29.4,20.6,0000.0,0001.62,0001.21,0001.01
2022-06-01 04:31:00,,0833.0,5.00,0.00,27.6,26.4,00.0,36.5,29.4,20.5,0000.0,0001.66,0001.21,0001.00
2022-06-01 04:32:00,,0833.0,5.01,0.00,27.6,26.4,00.0,36.5,29.4,20.4,0000.0,0001.66,0001.20,0000.98
2022-06-01 04:33:00,,0833.1,5.00,0.00,27.6,26.4,00.0,36.5,29.4,20.4,0000.0,0001.65,0001.18,0000.96
2022-06-01 04:34:00,,0833.1,4.99,0.00,27.6,26.4,00.0,36.5,29.4,20.2,0000.0,0001.58,0001.14,0000.93
2022-06-01 04:35:00,,0833.1,5.00,0.00,27.6,26.4,00.0,36.5,29.4,20.2,0000.0,0001.53,0001.10,0000.90
2022-06-01 04:36:00,,0833.2,5.00,0.00,27.6,26.4,00.0,36.5,29.4,20.2,0000.0,0001.42,0001.04,0000.88
2022-06-01 04:37:00,,0833.1,5.01,0.00,27.6,26.4,00.0,36.5,29.4,20.2,0000.0,0001.38,0001.01,0000.86
2022-06-01 04:38:00,,0833.1,5.01,0.00,27.6,26.4,00.0,36.5,29.4,20.2,0000.0,0001.32,0000.97,0000.84
2022-06-01 04:39:00,,0833.2,4.99,0.00,27.6,26.4,00.0,36.5,29.4,20.1,0000.0,0001.27,0000.95,0000.82
2022-06-01 04:40:00,,0833.2,4.99,0.00,27.5,26.4,00.0,36.5,29.4,20.1,0000.0,0001.28,0000.95,0000.82
2022-06-01 04:41:00,,0833.3,5.00,0.00,27.5,26.4,00.0,36.5,29.4,20.1,0000.0,0001.28,0000.95,0000.82
2022-06-01 04:42:00,,0833.3,5.01,0.00,27.5,26.4,00.0,36.5,29.4,20.2,0000.0,0001.23,0000.93,0000.81
2022-06-01 04:43:00,,0833.4,5.00,0.00,27.5,26.4,00.0,36.5,29.4,20.2,0000.0,0001.23,0000.93,0000.80
2022-06-01 04:44:00,,0833.4,5.00,0.00,27.5,26.4,00.0,36.5,29.4,20.2,0000.0,0001.21,0000.93,0000.80
2022-06-01 04:45:00,,0833.5,4.99,0.00,27.5,26.4,00.0,36.5,29.4,20.1,0000.0,0001.21,0000.92,0000.81
2022-06-01 04:46:00,,0833.5,5.01,0.00,27.5,26.4,00.0,36.5,29.4,20.2,0000.0,0001.23,0000.94,0000.81
2022-06-01 04:47:00,,0833.4,5.00,0.00,27.5,26.4,00.0,36.5,29.4,20.1,0000.0,0001.24,0000.94,0000.81
2022-06-01 04:48:00,,0833.4,5.00,0.00,27.5,26.4,00.0,36.5,29.4,20.1,0000.0,0001.27,0000.94,0000.81
2022-06-01 04:49:00,,0833.4,5.00,0.00,27.5,26.4,00.0,36.5,29.4,20.1,0000.0,0001.29,0000.95,0000.80
2022-06-01 04:50:00,,0833.4,5.00,0.00,27.5,26.4,00.0,36.5,29.4,20.0,0000.0,0001.27,0000.94,0000.80
2022-06-01 04:51:00,,0833.4,5.00,0.00,27.5,26.4,00.0,36.5,29.4,20.0,0000.0,0001.24,0000.92,0000.78
2022-06-01 04:52:00,,0833.4,4.99,0.00,27.5,26.4,00.0,36.5,29.4,20.1,0000.0,0001.20,0000.90,0000.78
2022-06-01 04:53:00,,0833.4,5.01,0.00,27.5,26.4,00.0,36.5,29.4,20.1,0000.0,0001.23,0000.91,0000.78
2022-06-01 04:54:00,,0833.4,5.00,0.00,27.5,26.4,00.0,36.4,29.4,20.2,0000.0,0001.18,0000.89,0000.79
2022-06-01 04:55:00,,0833.4,5.00,0.00,27.5,26.4,00.0,36.4,29.4,20.3,0000.0,0001.18,0000.88,0000.78
2022-06-01 04:56:00,,0833.4,4.99,0.00,27.5,26.4,00.0,36.4,29.4,20.3,0000.0,0001.17,0000.88,0000.78
2022-06-01 04:57:00,,0833.5,5.01,0.00,27.5,26.4,00.0,36.4,29.4,20.2,0000.0,0001.11,0000.85,0000.78
2022-06-01 04:58:00,,0833.4,5.00,0.00,27.5,26.4,00.0,36.4,29.4,20.2,0000.0,0001.09,0000.85,0000.78
2022-06-01 04:59:00,,0833.4,5.00,0.00,27.5,26.4,00.0,36.4,29.4,20.2,0000.0,0001.09,0000.85,0000.78
